This is the latest recevied weather packets stored in our database for station/object AA1FF. If no packets are shown the sender has not sent any weather packets the latest 10 day(s).
| Time | Temp. | Humidity | Pressure | Rain* | Wind** | Luminosity | Snow |
|---|---|---|---|---|---|---|---|
| 1777905224 | 16.67° C | 36% | 1011 hPa | 0 mm | - | 770 W/m² | - |
| 1777904641 | 16.67° C | 38% | 1011 hPa | 0 mm | - | 744 W/m² | - |
| 1777904326 | 16.11° C | 37% | 1011 hPa | 0 mm | - | 732 W/m² | - |
| 1777904027 | 16.11° C | 38% | 1011 hPa | 0 mm | - | 720 W/m² | - |
| 1777903725 | 16.11° C | 38% | 1011 hPa | 0 mm | - | 708 W/m² | - |
| 1777903425 | 16.11° C | 39% | 1011 hPa | 0 mm | - | 692 W/m² | - |
| 1777903128 | 16.11° C | 38% | 1011 hPa | 0 mm | - | 676 W/m² | - |
| 1777902825 | 15.56° C | 39% | 1011 hPa | 0 mm | - | 663 W/m² | - |
| 1777902525 | 15.56° C | 40% | 1011 hPa | 0 mm | - | 648 W/m² | - |
| 1777902225 | 15.56° C | 41% | 1011 hPa | 0 mm | - | 635 W/m² | - |
| 1777901928 | 15.56° C | 42% | 1011 hPa | 0 mm | - | 619 W/m² | - |
| 1777901625 | 15° C | 42% | 1011 hPa | 0 mm | - | 603 W/m² | - |
| 1777901328 | 15° C | 43% | 1011 hPa | 0 mm | - | 587 W/m² | - |
| 1777901025 | 14.44° C | 44% | 1011 hPa | 0 mm | - | 575 W/m² | - |
| 1777900726 | 14.44° C | 43% | 1011 hPa | 0 mm | - | 560 W/m² | - |
| 1777900425 | 13.89° C | 44% | 1011 hPa | 0 mm | - | 545 W/m² | - |
| 1777900126 | 13.89° C | 44% | 1011 hPa | 0 mm | - | 527 W/m² | - |
| 1777899830 | 13.89° C | 45% | 1011 hPa | 0 mm | - | 510 W/m² | - |
| 1777899525 | 13.33° C | 46% | 1011 hPa | 0 mm | - | 494 W/m² | - |
| 1777899228 | 13.33° C | 46% | 1011 hPa | 0 mm | - | 477 W/m² | - |
| 1777898928 | 13.33° C | 47% | 1012 hPa | 0 mm | - | 460 W/m² | - |
| 1777898626 | 12.78° C | 46% | 1012 hPa | 0 mm | - | 446 W/m² | - |
| 1777898325 | 12.78° C | 47% | 1012 hPa | 0 mm | - | 425 W/m² | - |
| 1777898027 | 12.22° C | 48% | 1012 hPa | 0 mm | - | 404 W/m² | - |
| 1777897729 | 12.22° C | 49% | 1012 hPa | 0 mm | - | 403 W/m² | - |
* Rain latest hour (hover to see other rain measurements)
** Current wind speed in m/s (hover to see current wind gust speed)